www.pogodaiklimat.ru

Погода и климат >> Архив погоды >> Россия >> Хабаровский край >> Чекунда


АРХИВ ПОГОДЫ в Чекунде

Время (UTC), дата Ветер
(напр.,м/с)
 
Видим.   Явления Облачность Т
(С)
Тd
(С)
f
(%)
Тe
(С)
Тes
(С)
Комфортность P
(гПа)
Po
(гПа)
Тmin
(С)
Tmax
(С)
R
(мм)
R24
(мм)
S
(см)
21 18.08 СВ 2 50 км слаб. ливневой дождь 10/10 600 м
[Cb cap]
+11.4 +11.4 100 +10 +10 1009.4 977.3 +11.4 10
00 19.08 С 1 10 км слаб. ливневой дождь 10/10 600 м
[Cb cap]
+12.7 +12.6 99 +13 +13 1010.2 978.3
03 19.08 С 1 2000 м ливневой дождь 10/10 600 м
[Cb cap]
+13.8 +13.7 99 +14 +14 1010.6 978.8
06 19.08 С 1 50 км слаб. ливневой дождь 10/10 600 м
[Cb cap]
+15.4 +15.0 97 +16 +16 1010.6 979.0
09 19.08 С 1 50 км {ливн. осадки} 10/8 600 м
[Sc diur, vesp Cs]
+14.9 +14.5 97 +15 +15 1011.3 979.6 +16.3 6
12 19.08 штиль 0 н/о н/о +14.6 +14.6 100 +14 +14 1012.2 980.4
15 19.08 штиль 0 н/о н/о +14.1 +14.1 100 +14 +14 1012.4 980.6
18 19.08 штиль 0 н/о н/о +13.8 +13.8 100 +13 +13 1012.7 980.8
21 19.08 штиль 0 50 км 10/10 600 м
[Cb cap]
+13.7 +13.7 100 +13 +13 1012.8 980.9 +13.5 1
00 20.08 ЮЗ 1 50 км 10/10 600 м
[Cb cap]
+16.0 +14.6 91 +17 +17 1012.6 981.0
03 20.08 Ю 1 50 км 10/8 600 м
[Cb cap Ac As]
+17.4 +13.2 76 +18 +19 1012.4 980.9
06 20.08 ЮЗ 1 50 км 9/8 600 м
[Cb cap Ac As]
+18.4 +13.0 71 +20 +21 1011.2 979.8
09 20.08 ЮЗ 1 50 км 8/4 600 м
[Cu med, cong Ci fib]
+17.9 +13.9 77 +19 +20 1011.0 979.7 +19.3
12 20.08 штиль 0 н/о н/о +12.2 +12.2 100 +11 +11 1012.7 980.6
15 20.08 В 1 н/о н/о +13.0 +13.0 100 +13 +13 1012.2 980.2
18 20.08 штиль 0 н/о н/о +13.0 +13.0 100 +12 +12 1011.8 979.8
21 20.08 СВ 1 50 км в посл. час ливневой дождь 10/10 600 м
[Cb cap]
+14.3 +14.3 100 +15 +15 1011.8 980.0 +12.2 2
00 21.08 СВ 3 50 км {ливн. осадки} 10/10 600 м
[Cb cap]
+16.6 +15.4 93 +16 +16 1011.4 979.9
03 21.08 С 2 50 км 10/8 600 м
[Cb cap Ci fib]
+20.7 +15.3 71 +24 +26 комфорт 1009.6 978.6
06 21.08 СВ 2 50 км слаб. ливневой дождь 10/10 600 м
[Cb cap]
+20.4 +15.2 72 +24 +24 комфорт 1007.9 976.9
09 21.08 ЮВ 1 4000 м ливневой дождь 10/10 600 м
[Cb cap]
+16.9 +16.5 97 +18 +18 1008.7 977.3 +22.6 3
12 21.08 штиль 0 н/о н/о +15.5 +15.4 99 +15 +15 1009.5 977.9
15 21.08 СВ 1 н/о н/о +15.0 +14.8 99 +15 +15 1009.1 977.5
18 21.08 СВ 1 н/о н/о +13.8 +13.5 98 +14 +14 1009.1 977.3
21 21.08 СВ 2 50 км слаб. ливневой дождь 10/10 600 м
[Cb cap]
+13.9 +13.6 98 +13 +13 1009.4 977.7 +13.7 2
00 22.08 С 1 50 км слаб. ливневой дождь 10/10 600 м
[Cb cap]
+15.5 +14.9 96 +16 +16 1009.9 978.3
03 22.08 С 3 50 км слаб. ливневой дождь 10/9 600 м
[Cb cap Ci sp]
+18.1 +15.1 83 +18 +19 1009.7 978.4
06 22.08 СВ 2 50 км {ливн. осадки} 10/10 600 м
[Cb cap]
+17.9 +15.6 86 +18 +18 1009.4 978.1
09 22.08 СВ 1 50 км 10/10 600 м
[Cb cap]
+17.0 +15.4 90 +18 +18 1010.3 978.9 +18.7 1
12 22.08 штиль 0 н/о н/о +15.3 +15.0 98 +15 +15 1011.7 980.0
15 22.08 штиль 0 н/о н/о +14.1 +13.9 99 +14 +14 1012.7 980.8
18 22.08 С 1 н/о н/о +13.6 +13.3 98 +14 +14 1012.8 980.9
21 22.08 СЗ 1 50 км 10/8 600 м
[Sc diur, vesp Ac As]
+13.7 +13.7 100 +14 +14 1013.2 981.3 +13.2
00 23.08 СВ 1 50 км 10/8 600 м
[Sc diur, vesp Ci fib]
+16.7 +13.2 80 +18 +19 1013.4 981.8
03 23.08 З 1 50 км 9/3 600 м
[Cu med, cong Cc]
+18.9 +14.0 73 +21 +30 комфорт 1012.0 980.7
06 23.08 СВ 2 50 км 10/3 600 м
[Cb calv Ci fib]
+23.3 +12.2 50 +26 +31 жарко 1010.2 979.4
09 23.08 СЗ 1 50 км 10/3 600 м
[Cu med, cong Ac trans Ci fib]
+20.1 +14.0 68 +23 +24 комфорт 1010.0 978.9 +24.1
12 23.08 СВ 1 н/о н/о +15.8 +15.4 97 +16 +16 1011.8 980.2
15 23.08 СВ 1 н/о н/о +14.4 +13.6 95 +15 +15 1012.5 980.7
18 23.08 СВ 1 н/о н/о +14.0 +13.2 95 +14 +14 1012.9 981.1
21 23.08 штиль 0 50 км 10/8 1000 м
[Sc Ac As Cs]
+13.3 +12.6 96 +13 +13 1013.4 981.4 +12.6
00 24.08 ЮЗ 2 50 км {ливн. осадки} 8/4 600 м
[Cb cap Ac trans]
+15.4 +13.2 87 +15 +18 1013.1 981.3
03 24.08 З 2 50 км 8/3 600 м
[Cu med, cong Ci fib]
+19.4 +13.5 69 +21 +29 комфорт 1011.7 980.5
06 24.08 З 1 50 км 9/9 600 м
[Cb cap]
+22.6 +12.3 52 +25 +26 комфорт 1009.6 978.8
09 24.08 С 1 50 км 3/3 600 м
[Cu med, cong Ci fib]
+19.6 +13.8 69 +22 +23 комфорт 1010.0 978.8 +23.0 1
12 24.08 ЮЗ 1 н/о н/о +15.5 +14.6 94 +16 +16 1011.6 979.9
15 24.08 штиль 0 н/о н/о +11.0 +11.0 100 +10 +10 1012.6 980.4
18 24.08 В 1 н/о н/о +9.8 +9.8 100 +9 +9 1013.2 980.9
21 24.08 штиль 0 500 м туман 8/0
[Ci fib]
+8.8 +8.8 100 +8 +8 1014.4 981.9 +6.9
00 25.08 СЗ 2 50 км {туман} 4/0
[Ci fib]
+12.6 +11.1 91 +12 +18 1014.4 982.3
03 25.08 З 1 50 км 3/1 600 м
[Cu med, cong Ci fib]
+17.8 +11.2 65 +19 +32 опасность
простуды
1012.3 980.8
06 25.08 ЮЗ 1 50 км 4/4 1000 м
[Sc]
+23.1 +9.5 42 +25 +30 комфорт 1010.0 979.1
09 25.08 штиль 0 50 км 6/6 1000 м
[Sc]
+19.8 +14.2 70 +22 +22 комфорт 1009.6 978.5 +24.0
12 25.08 ЮВ 1 н/о н/о +14.5 +13.7 95 +15 +15 1011.1 979.4
15 25.08 штиль 0 н/о н/о +14.1 +13.5 96 +14 +14 1011.2 979.4
18 25.08 штиль 0 н/о н/о +10.5 +10.5 100 +10 +10 1011.8 979.5

 

Местоположение метеостанции Чекунда (Хабаровский край, Россия): широта 50.87 долгота 132.20 высота над уровнем моря 272 м.

В архиве по умолчанию представлена погода в Чекунде за последнюю неделю. Архивные данные за месяц целиком и за предыдущие месяцы, начиная с января 2011 года, Вы можете получить, выбрав интересующий диапазон дат из раскрывающегося списка и нажав кнопку "Ввод!".


*Определитесь, кто Вы:
робот инопланетянин человек

Внимание! Время в таблицах - всемирное. Для получения местного времени необходимо прибавить поправку, которая равна 10 ч.

Смотрите также архив погоды в соседних городах и на ближайших метеорологических станциях:

Погода в Чегдомыне (Хабаровский край, Россия) (59 км)
Погода в Сутуре (Хабаровский край, Россия) (89 км)
Погода в Сектагли (Хабаровский край, Россия) (98 км)
Погода в Усть-Умальте (Хабаровский край, Россия) (110 км)
Погода в Верховье Урми (Хабаровский край, Россия) (130 км)
Погода в Урми (Хабаровский край, Россия) (178 км)
Погода в Софийском Прииске (Хабаровский край, Россия) (195 км)
Погода в Куре (Хабаровский край, Россия) (200 км)
Погода в Февральске (Амурская область, Россия) (201 км)
Погода в Малиновке (Амурская область, Россия) (203 км)

Пояснения к столбцам:

Ветер - указаны скорость ветра в м/с - средняя за 10 мин, порывы в срок и между сроками (в фигурных скобках) и направление, откуда дует ветер: С - северный, СВ - северо-восточный, В - восточный, ЮВ - юго-восточный, Ю - южный, ЮЗ - юго-западный, З - западный, СЗ - северо-западный.
Видимость - горизонтальная дальность видимости в метрах или километрах. При видимости от 1 до 10 км при отсутствии осадков обычно наблюдается дымка, при ухудшении видимости до 1 км и менее - туман. В сухую погоду видимость может ухудшаться дымом, пылью или мглою.
Явления - указаны атмосферные явления, наблюдавшиеся в срок или в последний час перед сроком; фигурными скобками обозначены явления, наблюдавшиеся между сроками (за 1-3 часа до срока); квадратными скобками обозначены град или гололедные отложения с указанием их диаметра в мм.
Облачность - указаны через наклонную черту общая и нижняя облачность в баллах и высота нижней границы облаков в метрах; квадратными скобками обозначены формы облаков: Ci - перистые, Cs - перисто-слоистые, Cc - перисто-кучевые, Ac - высококучевые, As - высокослоистые, Sc - слоисто-кучевые, Ns - слоисто-дождевые, Cu - кучевые, Cb - кучево-дождевые. Подробнее классификацию облаков см. в Атласе облаков (PDF).
T - Температура воздуха - температура, измеренная на высоте 2 м над землей.
Td - Температура точки росы - температура, при понижении до которой содержащийся в воздухе водяной пар достигнет насыщения.
f - Относительная влажность воздуха - влажноcть воздуха, измеренная на высоте 2 м над землей.
Te - Эффективная температура - температура, которую ощущает одетый по сезону человек в тени. Характеристика душности погоды. При расчете учитывается влияние влажности воздуха и скорости ветра на теплоощущения человека.
Tes - Эффективная температура на солнце - температура, которую ощущает человек, с поправкой на солнечный нагрев. Характеристика знойности погоды. Зависит от высоты солнца над горизонтом, облачности и скорости ветра. Ночью, в пасмурную погоду, а также при ветре 12 м/с и более поправка равна нулю.
P - Атмосферное давление - приведенное к уровню моря атмосферное давление.
Po - Атмосферное давление - измеренное на уровне метеостанции атмосферное давление.
Tmin - Минимальная температура - минимум температуры воздуха на высоте 2 м над землей.
Tmax - Максимальная температура - максимум температуры воздуха на высоте 2 м над землей.
R - Количество осадков - Количество выпавших осадков за период времени, мм. При наведении курсора мыши на число - период времени, за который выпало указанное количество осадков.
R24 - Количество осадков - Количество выпавших осадков за 24 часа, мм.
S - Снежный покров - Высота снежного покрова, см. При наведении курсора мыши на число - состояние снежного покрова и степень покрытия местности в баллах.